Date String (YYYY-MM-DD hh:mm:ss) UTC,Instrument flags,Ambient pressure (hPa),Sample flow (lpm),Bypass flow (lpm),Sample temperature (°C),Ambient temperature (°C),ASC tube jacket temperature (°C),LED temperature (°C),Box temperature (°C),Sample RH (%),Span deviation,Mass concentration (μg/m³),Mass concentration (μg/m³),Mass concentration (μg/m³)
DateTimeUTC,F1_M11,P_M11,Q1_M11,Q2_M11,T1_M11,T2_M11,T3_M11,T4_M11,T5_M11,U1_M11,ZSPAN_M11,X0_M11,X2_M11,X1_M11
2021-10-08 03:00:00,,0827.0,5.00,0.00,29.9,29.1,00.0,38.9,31.8,15.1,0000.0,0011.76,0003.70,0003.17
2021-10-08 03:01:00,,0827.1,5.00,0.00,30.0,29.1,00.0,38.9,31.8,15.1,0000.0,0012.99,0003.70,0003.17
2021-10-08 03:02:00,,0827.0,5.02,0.00,30.0,28.9,00.0,38.9,31.8,15.1,0000.0,0012.63,0003.72,0003.18
2021-10-08 03:03:00,,0827.0,5.00,0.00,29.9,27.0,00.0,38.9,31.3,15.2,0000.0,0012.68,0003.73,0003.19
2021-10-08 03:04:00,,0827.0,5.00,0.00,29.7,25.4,00.0,38.9,30.8,15.3,0000.0,0013.77,0003.72,0003.18
2021-10-08 03:05:00,,0827.0,5.00,0.00,29.6,25.5,00.0,38.8,30.8,15.4,0000.0,0013.17,0003.69,0003.16
2021-10-08 03:06:00,,0827.0,4.99,0.00,29.5,26.0,00.0,38.8,30.9,15.5,0000.0,0012.45,0003.67,0003.15
2021-10-08 03:07:00,,0827.5,5.00,0.00,29.4,26.5,00.0,38.7,31.0,15.6,0000.0,0012.74,0003.66,0003.15
2021-10-08 03:08:00,,0827.1,4.99,0.00,29.4,26.9,00.0,38.7,31.0,15.6,0000.0,0012.72,0003.65,0003.14
2021-10-08 03:09:00,,0827.1,5.02,0.00,29.4,27.3,00.0,38.6,31.1,15.6,0000.0,0012.20,0003.65,0003.13
2021-10-08 03:10:00,,0827.1,5.00,0.00,29.4,27.5,00.0,38.6,31.1,15.7,0000.0,0012.46,0003.69,0003.13
2021-10-08 03:11:00,,0827.2,5.00,0.00,29.4,27.8,00.0,38.6,31.1,15.6,0000.0,0012.36,0003.71,0003.13
2021-10-08 03:12:00,,0827.1,5.00,0.00,29.4,27.9,00.0,38.6,31.2,15.6,0000.0,0010.93,0003.68,0003.14
2021-10-08 03:13:00,,0827.1,5.00,0.00,29.4,28.1,00.0,38.6,31.2,15.6,0000.0,0010.79,0003.65,0003.14
2021-10-08 03:14:00,,0827.1,5.00,0.00,29.5,28.2,00.0,38.6,31.3,15.7,0000.0,0010.47,0003.62,0003.13
2021-10-08 03:15:00,,0827.1,5.00,0.00,29.5,28.3,00.0,38.6,31.3,15.7,0000.0,0009.41,0003.66,0003.14
2021-10-08 03:16:00,,0827.1,5.00,0.00,29.5,28.4,00.0,38.6,31.3,15.6,0000.0,0009.44,0003.69,0003.15
2021-10-08 03:17:00,,0827.2,5.01,0.00,29.5,28.5,00.0,38.6,31.4,15.6,0000.0,0010.36,0003.71,0003.15
2021-10-08 03:18:00,,0827.1,5.01,0.00,29.6,28.6,00.0,38.6,31.4,15.6,0000.0,0010.45,0003.74,0003.16
2021-10-08 03:19:00,,0827.1,5.00,0.00,29.6,28.7,00.0,38.6,31.5,15.6,0000.0,0010.15,0003.74,0003.16
2021-10-08 03:20:00,,0827.2,4.99,0.00,29.7,28.7,00.0,38.6,31.5,15.6,0000.0,0009.93,0003.73,0003.17
2021-10-08 03:21:00,,0827.2,5.01,0.00,29.7,28.8,00.0,38.7,31.5,15.5,0000.0,0009.89,0003.72,0003.17
2021-10-08 03:22:00,,0827.1,4.99,0.00,29.7,28.8,00.0,38.7,31.6,15.5,0000.0,0009.88,0003.71,0003.17
2021-10-08 03:23:00,,0827.1,5.01,0.00,29.8,28.9,00.0,38.7,31.6,15.5,0000.0,0009.73,0003.72,0003.17
2021-10-08 03:24:00,,0827.2,4.99,0.00,29.8,28.9,00.0,38.7,31.7,15.4,0000.0,0009.70,0003.72,0003.17
2021-10-08 03:25:00,,0827.1,4.99,0.00,29.8,29.0,00.0,38.7,31.7,15.4,0000.0,0009.78,0003.74,0003.17
2021-10-08 03:26:00,,0827.2,5.00,0.00,29.9,29.0,00.0,38.8,31.7,15.4,0000.0,0009.78,0003.73,0003.16
2021-10-08 03:27:00,,0827.1,5.01,0.00,29.9,29.1,00.0,38.8,31.8,15.3,0000.0,0009.78,0003.70,0003.16
2021-10-08 03:28:00,,0827.1,5.01,0.00,29.9,29.1,00.0,38.8,31.7,15.3,0000.0,0009.23,0003.70,0003.17
2021-10-08 03:29:00,,0827.1,4.99,0.00,30.0,29.2,00.0,38.9,31.8,15.3,0000.0,0008.66,0003.68,0003.17
2021-10-08 03:30:00,,0827.1,5.00,0.00,30.0,29.2,00.0,38.9,31.8,15.3,0000.0,0008.65,0003.70,0003.17
2021-10-08 03:31:00,,0827.1,5.01,0.00,30.0,29.3,00.0,38.9,31.9,15.5,0000.0,0008.52,0003.70,0003.18
2021-10-08 03:32:00,,0827.2,5.00,0.00,30.0,28.9,00.0,38.9,31.8,15.8,0000.0,0008.11,0003.71,0003.19
2021-10-08 03:33:00,,0827.1,5.00,0.00,29.9,26.9,00.0,38.9,31.3,16.2,0000.0,0008.02,0003.71,0003.19
2021-10-08 03:34:00,,0827.3,5.01,0.00,29.8,26.4,00.0,38.9,31.2,16.3,0000.0,0008.21,0003.77,0003.20
2021-10-08 03:35:00,,0827.1,4.99,0.00,29.7,26.6,00.0,38.9,31.2,16.5,0000.0,0008.61,0003.80,0003.21
2021-10-08 03:36:00,,0827.2,4.99,0.00,29.7,27.1,00.0,38.8,31.2,16.7,0000.0,0009.69,0003.84,0003.22
2021-10-08 03:37:00,,0827.1,5.00,0.00,29.6,27.4,00.0,38.8,31.3,16.8,0000.0,0010.17,0003.93,0003.23
2021-10-08 03:38:00,,0827.1,5.00,0.00,29.6,27.7,00.0,38.8,31.3,16.8,0000.0,0010.40,0003.99,0003.25
2021-10-08 03:39:00,,0827.2,4.99,0.00,29.7,28.0,00.0,38.8,31.4,16.6,0000.0,0009.79,0004.04,0003.26
2021-10-08 03:40:00,,0827.2,5.00,0.00,29.7,28.2,00.0,38.8,31.4,16.5,0000.0,0010.27,0004.07,0003.28
2021-10-08 03:41:00,,0827.2,5.01,0.00,29.7,28.4,00.0,38.8,31.5,16.7,0000.0,0010.74,0004.13,0003.30
2021-10-08 03:42:00,,0827.2,5.01,0.00,29.7,28.5,00.0,38.8,31.5,16.7,0000.0,0010.94,0004.20,0003.31
2021-10-08 03:43:00,,0827.2,4.99,0.00,29.8,28.6,00.0,38.8,31.5,16.8,0000.0,0011.25,0004.26,0003.33
2021-10-08 03:44:00,,0827.2,4.99,0.00,29.8,28.7,00.0,38.8,31.6,16.5,0000.0,0011.42,0004.32,0003.35
2021-10-08 03:45:00,,0827.2,5.01,0.00,29.8,28.8,00.0,38.8,31.6,16.0,0000.0,0011.93,0004.38,0003.36
2021-10-08 03:46:00,,0827.2,4.99,0.00,29.8,28.9,00.0,38.8,31.6,15.8,0000.0,0012.73,0004.40,0003.37
2021-10-08 03:47:00,,0827.2,4.99,0.00,29.9,28.9,00.0,38.8,31.7,15.6,0000.0,0011.97,0004.37,0003.38
2021-10-08 03:48:00,,0827.3,5.00,0.00,29.9,29.0,00.0,38.9,31.7,15.5,0000.0,0012.16,0004.30,0003.38
2021-10-08 03:49:00,,0827.2,5.01,0.00,29.9,29.0,00.0,38.9,31.8,15.6,0000.0,0011.97,0004.27,0003.39
2021-10-08 03:50:00,,0827.2,4.99,0.00,30.0,29.1,00.0,38.9,31.7,15.6,0000.0,0011.83,0004.27,0003.39
2021-10-08 03:51:00,,0827.2,5.01,0.00,30.0,29.2,00.0,38.9,31.8,15.6,0000.0,0011.46,0004.25,0003.39
2021-10-08 03:52:00,,0827.2,4.98,0.00,30.0,29.2,00.0,38.9,31.9,15.5,0000.0,0011.26,0004.20,0003.39
2021-10-08 03:53:00,,0827.1,5.00,0.00,30.0,28.6,00.0,39.0,31.7,15.5,0000.0,0011.18,0004.20,0003.39
2021-10-08 03:54:00,,0827.1,5.00,0.00,29.9,26.8,00.0,38.9,31.2,15.7,0000.0,0010.95,0004.14,0003.38
2021-10-08 03:55:00,,0827.1,5.01,0.00,29.8,26.5,00.0,38.9,31.1,15.9,0000.0,0010.85,0004.09,0003.38
2021-10-08 03:56:00,,0827.1,5.00,0.00,29.7,26.8,00.0,38.9,31.1,16.0,0000.0,0010.68,0003.98,0003.37
2021-10-08 03:57:00,,0827.1,5.00,0.00,29.6,27.2,00.0,38.8,31.2,16.0,0000.0,0010.03,0003.95,0003.37
2021-10-08 03:58:00,,0827.1,5.00,0.00,29.6,27.5,00.0,38.8,31.2,16.1,0000.0,0009.74,0003.97,0003.37
2021-10-08 03:59:00,,0827.2,5.00,0.00,29.6,27.8,00.0,38.8,31.3,16.2,0000.0,0009.41,0003.99,0003.37
